sat.trackr.live / text

‹ back to catalog

STARLINK-36210

NORAD 67174 · 2025-303M

PAYLOAD ACTIVE UNKNOWN

§ Identity

Operator
Country
US
Launch date
2025-12-17
Launch site
AFETR
Launch vehicle
Mass (kg)
RCS (m²)

Purposes: comms

External: N2YO · Heavens-Above · Gunter

§ Orbital elements

Epoch: 2026-09-19T19:42:29.423232Z

Period
94.27 min
Inclination
43.0021°
Eccentricity
0.0001680
Mean motion
15.27587664 rev/d
Perigee alt
481.9 km
Apogee alt
484.2 km
Semi-major
6,861.2 km
B*
1.9787e-4
RAAN
294.4869°
Arg perigee
273.7760°
Mean anomaly
86.2899°
Rev number
4,242

§ Raw data

STARLINK-362101 67174U 25303M   26262.82117388  .00005188  00000+0  19787-3 0  99902 67174  43.0021 294.4869 0001680 273.7760  86.2899 15.27587664 42421

JSON: /api/v1/satellites/67174 · /tle

For live sub-satellite position, see the globe view (requires WebGL).

§ Visibility from observer

Set your observer location to see the next 7 days of passes ≥ 10°. The values pass through the URL so the page stays shareable.

No JS? Fill the form by hand. The geolocation button needs JavaScript.